www.pogodaiklimat.ru

Погода и климат >> Архив погоды >> Таиланд >> Кабинбури


ПОГОДА в Кабинбури

  • Прогноз погоды в Кабинбури
  • Монитор погоды в Кабинбури

АРХИВ ПОГОДЫ в Кабинбури

Время (UTC), дата Ветер
(напр.,м/с)
 
Видим.   Явления Облачность Т
(С)
Тd
(С)
f
(%)
Тe
(С)
Тes
(С)
Комфортность P
(гПа)
Po
(гПа)
Тmin
(С)
Tmax
(С)
R
(мм)
R24
(мм)
S
(см)
21 17.05 штиль 0 6000 м дымка 3/0
[Ac und Cs]
+27.5 +26.1 92 +41 +41 опасность
перегрева
1005.9 1004.5
00 18.05 штиль 0 8000 м дымка 3/0
[Cs]
+27.7 +26.0 90 +41 +43 опасность
перегрева
1007.3 1005.9 +27.1
03 18.05 штиль 0 11 км 5/3 600 м
[Cu hum Cs]
+33.0 +26.0 67 +49 +63 опасность
перегрева
1008.4 1007.0
06 18.05 штиль 0 11 км 8/5 600 м
[Cu Sc Ac trans Cs]
+35.6 +24.1 52 +48 +58 опасность
перегрева
1006.1 1004.7
09 18.05 штиль 0 11 км 4/3 600 м
[Cu hum Cs]
+36.2 +24.7 52 +49 +56 опасность
перегрева
1002.7 1001.4
12 18.05 штиль 0 10 км 3/0
[Cs]
+32.4 +23.5 59 +43 +43 опасность
перегрева
1003.9 1002.5 +36.8
15 18.05 штиль 0 6000 м дымка 3/0
[Cs]
+29.6 +24.1 72 +41 +41 опасность
перегрева
1006.9 1005.5
18 18.05 штиль 0 6000 м дымка ясно +28.5 +24.6 79 +40 +40 очень
душно
1006.7 1005.3
21 18.05 штиль 0 6000 м дымка ясно +27.6 +24.7 84 +39 +39 очень
душно
1006.1 1004.7
00 19.05 штиль 0 8000 м дымка 5/3 600 м
[Sc Cs]
+27.8 +26.0 90 +42 +43 опасность
перегрева
1007.6 1006.2 +27.0
03 19.05 З 2 10 км 8/5 600 м
[Cu Sc Cs]
+33.0 +26.8 70 +51 +58 опасность
перегрева
1008.8 1007.4
06 19.05 штиль 0 11 км 5/3 600 м
[Cu med, cong Cs]
+36.5 +25.3 53 +51 +69 опасность
перегрева
1006.9 1005.5
09 19.05 штиль 0 11 км 8/4 600 м
[Cb cap Cs]
+37.0 +23.6 46 +47 +53 опасность
перегрева
1004.3 1002.9
12 19.05 штиль 0 8000 м мгла 9/5 600 м
[Cu Sc Cs]
+33.5 +25.0 61 +47 +47 опасность
перегрева
1005.6 1004.3 +37.9
15 19.05 штиль 0 8000 м дымка 6/1 600 м
[Sc Ac trans Cs]
+30.2 +26.0 78 +45 +45 опасность
перегрева
1008.1 1006.7
18 19.05 штиль 0 6000 м дымка 9/4 600 м
[Sc Ac und Cs]
+28.5 +25.7 85 +42 +42 опасность
перегрева
1008.4 1007.0
21 19.05 штиль 0 6000 м дымка 8/0
[Ac und Cs]
+28.5 +26.0 86 +43 +43 опасность
перегрева
1007.6 1006.2
00 20.05 штиль 0 8000 м дымка 6/4 600 м
[Cu Sc Ac trans Cs]
+28.5 +26.2 87 +43 +44 опасность
перегрева
1008.3 1006.8 +27.5
03 20.05 штиль 0 10 км 5/3 600 м
[Cu med, cong Ac trans Cs]
+32.6 +26.2 69 +49 +61 опасность
перегрева
1009.2 1007.8
06 20.05 штиль 0 10 км 4/4 600 м
[Cu med, cong]
+37.4 +30.5 68 +66 +83 опасность
перегрева
1007.1 1005.7
09 20.05 З 4 8000 м слаб. дождь 8/6 600 м
[Cb cap Ac As Cs]
+36.4 +25.4 53 +50 +52 опасность
перегрева
1004.1 1002.7 0.4
12 20.05 штиль 0 8000 м дымка {гроза, дождь} 6/3 600 м
[Sc Ac As Cs]
+25.6 +24.4 93 +36 +36 очень
душно
1006.0 1004.6 +39.3 17
15 20.05 штиль 0 6000 м дымка 3/0
[Cs]
+25.8 +24.6 93 +36 +36 очень
душно
1008.3 1006.9
18 20.05 штиль 0 6000 м дымка 3/0
[Cs]
+25.5 +24.8 96 +36 +36 очень
душно
1008.1 1006.7
21 20.05 штиль 0 6000 м дымка 3/0
[Cs]
+25.5 +24.8 96 +36 +36 очень
душно
1007.4 1006.0
00 21.05 штиль 0 6000 м дымка 3/0
[Cs]
+26.0 +25.4 97 +38 +40 очень
душно
1008.6 1007.2 +25.5 18
03 21.05 штиль 0 11 км 3/3 600 м
[Cu hum Cs]
+33.0 +26.8 70 +51 +65 опасность
перегрева
1009.1 1007.7
06 21.05 штиль 0 11 км 3/3 600 м
[Cu hum Cs]
+36.2 +26.2 57 +52 +72 опасность
перегрева
1006.5 1005.1
09 21.05 штиль 0 11 км 3/3 600 м
[Cu hum Ci fib]
+37.5 +25.7 51 +52 +59 опасность
перегрева
1003.7 1002.4
12 21.05 штиль 0 8000 м дымка 3/3 600 м
[Cu hum Ci fib]
+31.6 +24.3 65 +44 +44 опасность
перегрева
1005.4 1004.0 +37.9
15 21.05 штиль 0 6000 м дымка 3/0
[Cs]
+29.6 +25.9 81 +44 +44 опасность
перегрева
1007.7 1006.3
18 21.05 штиль 0 6000 м дымка 3/0
[Cs]
+28.5 +25.7 85 +42 +42 опасность
перегрева
1008.5 1007.1
21 21.05 штиль 0 6000 м дымка 3/0
[Cs]
+27.8 +25.5 87 +41 +41 опасность
перегрева
1007.9 1006.5
00 22.05 штиль 0 7000 м дымка 8/4 600 м
[Sc Ac und Cs]
+27.5 +26.1 92 +41 +42 опасность
перегрева
1008.7 1007.3 +27.1
03 22.05 штиль 0 10 км 8/6 600 м
[Cu Sc Ac As Cs]
+31.7 +27.6 79 +51 +57 опасность
перегрева
1009.1 1007.7
06 22.05 штиль 0 10 км 8/4 600 м
[Cu med, cong Ac As Cs]
+34.6 +27.0 65 +53 +64 опасность
перегрева
1007.5 1006.1
09 22.05 штиль 0 10 км {гроза} 9/8 600 м
[Cb cap Ac As Cs]
+30.8 +26.2 77 +47 +48 опасность
перегрева
1005.3 1003.9
12 22.05 штиль 0 6000 м дымка {гроза} 8/5 600 м
[Sc Ac As Cs]
+28.5 +25.7 85 +42 +42 опасность
перегрева
1006.7 1005.2 +35.0
15 22.05 штиль 0 6000 м дымка 6/3 600 м
[Sc Ac As Cs]
+27.8 +25.2 86 +40 +40 очень
душно
1008.9 1007.5
18 22.05 штиль 0 6000 м дымка 6/3 600 м
[Sc Ac As Cs]
+27.0 +24.8 88 +39 +39 очень
душно
1009.3 1007.9
21 22.05 штиль 0 6000 м дымка 4/0
[Cs]
+26.4 +25.0 92 +38 +38 очень
душно
1008.0 1006.6
00 23.05 штиль 0 8000 м дымка 6/0
[Cs]
+26.5 +24.9 91 +38 +40 очень
душно
1009.3 1007.9 +26.0
03 23.05 штиль 0 10 км 4/1 600 м
[Cu hum Cs]
+32.8 +24.6 62 +46 +64 опасность
перегрева
1009.7 1008.3
06 23.05 штиль 0 11 км 6/4 600 м
[Cu Sc Cs]
+35.5 +25.0 55 +49 +65 опасность
перегрева
1007.8 1006.4
09 23.05 штиль 0 11 км 9/5 600 м
[Cu Sc Ac und Cs]
+31.1 +23.0 62 +41 +44 опасность
перегрева
1006.4 1005.0
12 23.05 штиль 0 8000 м дымка 4/1 600 м
[Sc Cs]
+29.0 +25.3 80 +42 +42 опасность
перегрева
1008.1 1006.7 +36.2
15 23.05 штиль 0 8000 м дымка 5/1 600 м
[Sc Cs]
+27.0 +24.8 88 +39 +39 очень
душно
1010.3 1008.9
18 23.05 штиль 0 6000 м дымка 6/0
[Cs]
+26.2 +24.3 89 +36 +36 очень
душно
1009.3 1007.9
21 23.05 штиль 0 6000 м дымка 6/0
[Cs]
+25.7 +24.5 93 +36 +36 очень
душно
1007.9 1006.5
00 24.05 штиль 0 8000 м дымка 3/0
[Cs]
+25.6 +24.3 93 +36 +38 очень
душно
1008.6 1007.1 +25.5
03 24.05 штиль 0 11 км 3/3 600 м
[Cu hum]
+31.8 +24.2 64 +44 +59 опасность
перегрева
1009.7 1008.3
06 24.05 ЮЗ 2 11 км 3/3 600 м
[Cu hum]
+35.0 +22.9 50 +45 +60 опасность
перегрева
1007.8 1006.4
09 24.05 штиль 0 11 км 3/3 600 м
[Cu hum]
+36.1 +23.4 48 +47 +54 опасность
перегрева
1004.3 1002.9
12 24.05 штиль 0 8000 м дымка 8/5 600 м
[Sc Ac trans Cs]
+28.3 +22.7 72 +38 +38 очень
душно
1005.7 1004.3 +36.4
15 24.05 штиль 0 6000 м дымка 3/0
[Cs]
+28.0 +25.1 84 +40 +40 очень
душно
1008.1 1006.7
18 24.05 штиль 0 6000 м дымка 3/0
[Cs]
+27.1 +24.8 87 +39 +39 очень
душно
1007.8 1006.4

 

Местоположение метеостанции Кабинбури (Таиланд): широта 13.98 долгота 101.70 высота над уровнем моря 12 м.

В архиве по умолчанию представлена погода в Кабинбури за последнюю неделю. Архивные данные за месяц целиком и за предыдущие месяцы, начиная с января 2011 года, Вы можете получить, выбрав интересующий диапазон дат из раскрывающегося списка и нажав кнопку "Ввод!".


*Определитесь, кто Вы:
робот инопланетянин человек

Внимание! Время в таблицах - всемирное. Для получения местного времени необходимо прибавить поправку, которая равна 7 ч.

Смотрите также архив погоды в соседних городах и на ближайших метеорологических станциях:

Погода в Прачинбури (Таиланд) (38 км)
Погода в Сракаеве (Таиланд) (42 км)
Погода в Чаченгсау (Таиланд) (60 км)
Погода в Пакчонг Агромете (Таиланд) (83 км)
Погода в Чок Чай (Таиланд) (96 км)
Погода в Араньяпратете (Таиланд) (100 км)
Погода в Чонбури (Таиланд) (103 км)
Погода в Ратбури (Таиланд) (103 км)
Погода в Сарабури (Таиланд) (103 км)
Погода в Аэропорту Суварнабхуми (Таиланд) (107 км)

Пояснения к столбцам:

Ветер - указаны скорость ветра в м/с - средняя за 10 мин, порывы в срок и между сроками (в фигурных скобках) и направление, откуда дует ветер: С - северный, СВ - северо-восточный, В - восточный, ЮВ - юго-восточный, Ю - южный, ЮЗ - юго-западный, З - западный, СЗ - северо-западный.
Видимость - горизонтальная дальность видимости в метрах или километрах. При видимости от 1 до 10 км при отсутствии осадков обычно наблюдается дымка, при ухудшении видимости до 1 км и менее - туман. В сухую погоду видимость может ухудшаться дымом, пылью или мглою.
Явления - указаны атмосферные явления, наблюдавшиеся в срок или в последний час перед сроком; фигурными скобками обозначены явления, наблюдавшиеся между сроками (за 1-3 часа до срока); квадратными скобками обозначены град или гололедные отложения с указанием их диаметра в мм.
Облачность - указаны через наклонную черту общая и нижняя облачность в баллах и высота нижней границы облаков в метрах; квадратными скобками обозначены формы облаков: Ci - перистые, Cs - перисто-слоистые, Cc - перисто-кучевые, Ac - высококучевые, As - высокослоистые, Sc - слоисто-кучевые, Ns - слоисто-дождевые, Cu - кучевые, Cb - кучево-дождевые. Подробнее классификацию облаков см. в Атласе облаков (PDF).
T - Температура воздуха - температура, измеренная на высоте 2 м над землей.
Td - Температура точки росы - температура, при понижении до которой содержащийся в воздухе водяной пар достигнет насыщения.
f - Относительная влажность воздуха - влажноcть воздуха, измеренная на высоте 2 м над землей.
Te - Эффективная температура - температура, которую ощущает одетый по сезону человек в тени. Характеристика душности погоды. При расчете учитывается влияние влажности воздуха и скорости ветра на теплоощущения человека.
Tes - Эффективная температура на солнце - температура, которую ощущает человек, с поправкой на солнечный нагрев. Характеристика знойности погоды. Зависит от высоты солнца над горизонтом, облачности и скорости ветра. Ночью, в пасмурную погоду, а также при ветре 12 м/с и более поправка равна нулю.
P - Атмосферное давление - приведенное к уровню моря атмосферное давление.
Po - Атмосферное давление - измеренное на уровне метеостанции атмосферное давление.
Tmin - Минимальная температура - минимум температуры воздуха на высоте 2 м над землей.
Tmax - Максимальная температура - максимум температуры воздуха на высоте 2 м над землей.
R - Количество осадков - Количество выпавших осадков за период времени, мм. При наведении курсора мыши на число - период времени, за который выпало указанное количество осадков.
R24 - Количество осадков - Количество выпавших осадков за 24 часа, мм.
S - Снежный покров - Высота снежного покрова, см. При наведении курсора мыши на число - состояние снежного покрова и степень покрытия местности в баллах.